Simultaneous Nadir Overpasses (SNOs) Predictions

Prediction of SNOs between NOAA-19 and TERRA Satellite Orbit:

Table of predicted SNOs for the next 14.0 days since TLE Epoch: 4/12/2025
Index Date (NOAA-19) Time (NOAA-19) Lat,Lon (NOAA-19) SZA (NOAA-19 ) Date (TERRA) Time (TERRA) Lat,Lon (TERRA) SZA (TERRA ) Distance(km) Time Diff (sec)
1 04/13/2025 02:59:21 -74.43, 66.65 93.18 04/13/2025 02:59:50 -74.44, 66.62 93.16 1.02 29
2 04/13/2025 03:50:05 73.43,-123.56 87.85 04/13/2025 03:48:52 73.42,-123.52 87.79 1.46 73
3 04/15/2025 05:57:39 -74.46, 22.04 93.91 04/15/2025 05:57:54 -74.47, 21.99 93.90 1.52 15
4 04/17/2025 08:56:00 -74.65, -23.00 94.79 04/17/2025 08:56:00 -74.64, -22.96 94.77 1.60 0
5 04/19/2025 11:54:19 -74.74, -67.81 95.57 04/19/2025 11:54:04 -74.73, -67.74 95.56 2.11 15
6 04/21/2025 14:02:00 75.53, 77.97 82.93 04/21/2025 14:03:03 75.53, 77.99 82.99 0.67 63
7 04/21/2025 14:52:35 -74.71,-112.23 96.19 04/21/2025 14:52:05 -74.71,-112.23 96.22 0.19 30
8 04/23/2025 17:00:15 75.47, 33.63 82.33 04/23/2025 17:01:03 75.49, 33.54 82.35 2.98 48
9 04/23/2025 17:50:53 -74.78,-156.96 96.92 04/23/2025 17:50:07 -74.77,-156.92 96.95 1.50 46
10 04/25/2025 19:58:31 75.48, -10.90 81.69 04/25/2025 19:59:03 75.49, -10.99 81.70 2.68 32



Historial Predications of SNOs between NOAA-19 and TERRA
